Location: Cruquius
(52.3348°N, 4.6319°E)
Time: 19:28:22
(UTC+00:00)

Cosmos 2344 - Pass Details

Date: 12 May 2021
Orbit: 1239 x 3003 km, 63.3° (Epoch: 21 June)

Event Time Altitude Azimuth Distance (km) Brightness Sun altitude
Rises 23:16:12 0° 313° (NW) 4,448 7.2 -19.1°
Reaches altitude 10° 23:18:46 10° 313° (NW) 3,592 6.6 -19.2°
Maximum altitude 23:27:40 84° 227° (SW) 1,797 4.2 -19.2°
Enters shadow 23:39:42 11° 142° (SE) 4,768 6.1 -19.3°
